Location: Anola
(49.8851°N, 96.6375°W)
Time: 01:05:31
(UTC-05:00)

OTV 5 (USA 277) - Visible Passes

Search period start: 21 April 2018 00:00
Search period end: 01 May 2018 00:00
Orbit: 307 x 321 km, 54.5° (Epoch: 20 April)

Date Brightness Start Highest point End Pass type
(mag) Time Alt. Az. Time Alt. Az. Time Alt. Az.
21 Apr ? 21:26:21 10° WSW 21:29:04 84° NNW 21:31:47 10° ENE visible
21 Apr ? 23:01:06 10° WNW 23:03:34 30° N 23:03:53 29° N visible
22 Apr ? 21:39:58 10° W 21:42:37 47° NNW 21:45:16 10° ENE visible
22 Apr ? 23:14:49 10° WNW 23:17:06 28° N 23:17:06 28° N visible
23 Apr ? 21:53:43 10° W 21:56:15 33° N 21:58:46 10° ENE visible
23 Apr ? 23:28:25 10° WNW 23:30:11 27° NNW 23:30:11 27° NNW visible
24 Apr ? 22:07:29 10° WNW 22:09:55 29° N 22:12:21 10° ENE visible
24 Apr ? 23:41:56 10° WNW 23:43:10 22° NW 23:43:10 22° NW visible
25 Apr ? 22:21:08 10° WNW 22:23:36 29° N 22:25:18 16° ENE visible
25 Apr ? 23:55:24 10° WNW 23:56:06 16° WNW 23:56:06 16° WNW visible
26 Apr ? 22:34:42 10° WNW 22:37:16 36° NNE 22:38:12 26° ENE visible
27 Apr ? 00:08:56 10° WNW 00:09:01 11° WNW 00:09:01 11° WNW visible
27 Apr ? 21:13:50 10° WNW 21:16:16 28° N 21:18:42 10° ENE visible
27 Apr ? 22:48:12 10° WNW 22:50:52 53° NNE 22:51:06 51° NE visible
28 Apr ? 21:27:27 10° WNW 21:29:56 31° N 21:32:26 10° ENE visible
28 Apr ? 23:01:41 10° WNW 23:03:59 59° WNW 23:03:59 59° WNW visible
29 Apr ? 21:40:58 10° WNW 21:43:35 41° NNE 21:46:04 11° E visible
29 Apr ? 23:15:16 10° WNW 23:16:53 27° W 23:16:53 27° W visible
30 Apr ? 21:54:27 10° WNW 21:57:09 68° NNE 21:58:59 18° ESE visible
30 Apr ? 23:29:09 10° W 23:29:48 14° W 23:29:48 14° W visible
